{"data":{"norad_id":69982,"intl_designator":"2026-159H","name":"STARLINK-38065","alt_names":[],"object_type":"PAYLOAD","status":"ACTIVE","operator":null,"country":"US","launch_date":"2026-07-11","launch_site_code":"AFWTR","launch_vehicle":null,"mission":null,"orbit_class":"UNKNOWN","rcs_meters":null,"size_class":null,"mass_kg":null,"dimensions":null,"purposes":["comms"],"wikipedia_slug":null,"has_3d_model":false,"image_url":null,"decayed_at":null,"tle_current":{"epoch":"2026-09-20T00:44:19.823136Z","epoch_age_seconds":58343,"freshness":"FRESH","line1":"1 69982U 26159H   26263.03078499  .00044204  00000+0  80848-3 0  9990","line2":"2 69982  97.2868 104.8299 0003042  85.7549 274.4050 15.49234733 12372","mean_motion":15.49234733,"eccentricity":0.0003042,"inclination_deg":97.2868,"raan_deg":104.8299,"arg_perigee_deg":85.7549,"mean_anomaly_deg":274.405,"bstar":0.00080848,"rev_number":1237,"period_min":92.949116704318,"perigee_km":416.89582127707,"apogee_km":421.03117722081,"semimajor_km":6797.1004992489,"source":"CELESTRAK","updated_at":"2026-09-20T09:00:44.329127Z"}}}